Temp
47 44 44 43 41 40 40 39 41 42 42 42 42 42 41 40 40 40 38 39 39 40
47 47 44 43 43 42 42 44 42 42 41 42 42 42 41 39 39 39 38 37 37 38
49 48 45 44 43 42 41 42 41 41 41 41 41 41 40 39 40 39 37 38 39 38
44 45 44 43 43 41 41 41 41 41 40 41 41 40 38 37 37 37 37 37 38 38
42 43 42 42 42 42 41 42 41 41 41 39 38 37 35 35 35 35 35 36 36 37
34 34 34 35 36 38 37 37 37 37 36 35 35 35 35 35 34 34 34 34 34 34
33 33 33 33 33 33 33 33 33 34 34 34 34 34 33 33 32 32 33 33 33 34
30 31 32 32 32 32 32 33 33 33 33 33 33 33 32 32 31 31 31 32 33 34
27 27 27 28 30 30 31 32 33 33 32 32 33 35 36 33 31 31 31 31 33 34
25 25 25 26 26 26 26 27 28 29 29 29 30 34 35 36 33 31 30 30 31 32
22 23 24 24 24 24 25 25 26 28 29 28 29 33 35 36 32 29 29 29 29 29
21 21 21 21 22 25 26 26 27 28 27 27 27 33 34 33 28 27 27 28 28 28
24 23 22 23 23 24 24 26 27 27 26 28 26 31 33 32 28 24 27 27 28 34
23 23 23 22 22 23 23 24 22 24 23 23 25 24 30 31 28 27 27 27 27 29
MSLP
1013.94 1014.46 1015.05 1015.66 1016.37 1016.95 1017.41 1017.78 1018.23 1018.64 1019.00 1019.43 1019.78 1020.12 1020.49 1020.80 1021.03 1021.18 1021.42 1021.73 1022.04 1022.40
1013.91 1014.31 1014.87 1015.45 1016.00 1016.57 1017.07 1017.56 1018.08 1018.53 1019.08 1019.36 1019.70 1020.03 1020.36 1020.81 1020.99 1021.27 1021.67 1021.95 1022.17 1022.37
1014.04 1014.34 1014.77 1015.31 1015.90 1016.42 1016.96 1017.45 1018.02 1018.56 1018.93 1019.44 1019.70 1019.93 1020.35 1020.79 1021.08 1021.28 1021.61 1021.98 1022.30 1022.47
1014.46 1014.68 1014.96 1015.33 1015.77 1016.23 1016.76 1017.36 1017.90 1018.39 1018.91 1019.22 1019.64 1019.80 1020.49 1020.84 1021.22 1021.59 1021.79 1022.07 1022.34 1022.60
1015.30 1015.44 1015.64 1015.93 1016.25 1016.61 1017.05 1017.46 1017.95 1018.38 1018.82 1019.32 1019.80 1019.88 1020.56 1021.09 1021.40 1021.67 1021.95 1022.19 1022.44 1022.63
1016.80 1016.88 1016.97 1017.02 1017.13 1017.43 1017.86 1018.31 1018.52 1018.90 1019.42 1019.54 1020.08 1020.51 1020.82 1021.15 1021.51 1021.80 1021.92 1022.27 1022.50 1022.69
1018.08 1017.87 1017.90 1017.96 1018.11 1018.42 1018.73 1019.11 1019.46 1019.69 1020.05 1020.11 1020.16 1020.52 1020.79 1021.23 1021.58 1021.93 1022.08 1022.31 1022.53 1022.76
1019.03 1018.86 1018.71 1018.81 1018.79 1018.92 1019.06 1019.22 1019.54 1019.91 1020.16 1020.32 1020.50 1020.57 1020.68 1021.06 1021.23 1021.62 1021.87 1022.11 1022.17 1022.42
1019.88 1020.03 1019.67 1019.76 1019.65 1019.51 1019.51 1019.48 1019.67 1020.12 1020.31 1020.48 1020.93 1020.83 1020.70 1021.17 1021.45 1021.48 1021.79 1021.93 1021.90 1021.90
1021.03 1020.78 1020.52 1020.59 1020.71 1020.41 1020.46 1020.30 1020.29 1020.46 1020.80 1020.64 1020.90 1021.15 1020.84 1020.88 1021.36 1021.24 1021.59 1021.84 1021.74 1021.67
1022.13 1021.91 1021.56 1021.20 1021.14 1021.19 1021.09 1021.07 1020.98 1020.81 1020.95 1020.95 1021.16 1021.32 1021.23 1020.98 1021.11 1021.01 1021.46 1021.60 1021.73 1021.72
1022.54 1022.36 1022.39 1021.87 1021.66 1021.44 1021.13 1020.94 1020.96 1020.89 1020.93 1020.83 1020.77 1020.85 1021.09 1020.69 1021.00 1021.14 1021.28 1021.35 1021.35 1021.31
1022.60 1022.21 1022.08 1021.94 1021.77 1021.58 1021.33 1021.02 1020.87 1020.73 1020.76 1020.83 1020.90 1020.87 1020.76 1020.30 1020.73 1021.08 1021.14 1021.20 1021.01 1020.91
1022.52 1022.29 1022.16 1021.62 1021.65 1021.55 1021.29 1021.26 1021.32 1021.12 1020.80 1020.80 1020.72 1020.77 1020.54 1020.42 1020.64 1020.83 1020.77 1020.37 1020.96 1020.51
Wind_Speed
7 5 5 6 5 5 5 5 7 6 6 7 6 5 5 4 4 5 5 6 5 4
5 7 6 7 6 5 6 6 7 7 6 6 6 6 6 4 5 5 4 5 5 4
5 5 6 7 7 7 7 7 7 7 7 6 6 6 5 5 4 6 4 4 5 3
4 4 5 5 6 7 7 8 8 7 7 7 7 6 6 6 5 5 5 5 5 4
5 5 4 4 5 6 6 6 6 6 6 7 7 7 6 5 5 5 5 4 4 3
8 8 8 8 8 8 8 7 7 7 6 7 6 5 5 5 5 4 4 3 3 3
6 6 5 6 6 5 5 4 3 4 4 6 7 6 7 6 6 4 4 4 4 4
7 6 5 4 4 4 4 4 4 4 4 4 5 4 6 6 5 5 4 4 4 5
8 9 9 8 7 7 5 4 3 3 3 3 1 6 11 7 4 5 6 5 5 5
8 7 7 7 7 7 7 6 6 5 4 4 3 6 5 7 3 2 3 4 4 4
8 7 6 6 5 4 3 4 2 1 3 2 3 8 8 8 2 2 4 4 5 5
5 6 6 5 4 4 3 3 2 2 2 2 3 7 9 6 1 3 5 5 5 6
5 4 4 4 4 4 4 5 3 5 3 5 3 8 10 7 1 3 5 5 5 13
6 6 5 3 4 5 4 5 4 5 4 4 5 5 12 12 5 5 7 5 5 4
Wind_Direction
175 148 151 154 152 160 160 156 159 153 147 134 129 128 122 114 112 106 104 97 85 102
168 147 150 156 154 156 144 145 148 148 138 138 143 147 142 131 126 119 112 115 109 114
196 169 162 153 157 157 146 140 143 147 145 146 145 135 129 120 123 127 126 126 127 111
124 125 120 133 145 142 132 144 152 155 151 148 144 136 116 101 96 88 93 92 96 104
67 81 99 102 104 115 131 137 147 138 134 115 106 101 112 115 120 128 127 140 154 154
41 47 47 53 57 64 74 68 73 84 101 111 116 126 133 134 136 137 133 127 105 101
28 46 51 53 61 74 86 105 109 132 151 158 155 153 153 156 160 163 171 176 188 194
38 39 56 78 100 115 132 138 143 157 168 166 168 172 165 168 166 177 186 203 205 213
44 33 36 31 33 45 57 68 112 166 169 148 207 209 185 179 194 204 212 211 206 208
26 39 39 28 24 33 29 27 26 25 12 24 359 295 253 231 205 200 231 231 226 221
12 8 11 15 21 17 5 351 339 257 210 200 254 259 258 262 323 314 276 257 237 225
360 349 341 338 319 309 305 304 291 286 306 273 239 257 257 260 318 290 269 265 261 230
290 280 272 317 323 312 298 282 275 264 256 270 271 272 266 258 211 260 269 277 267 267
310 308 291 279 281 277 277 284 293 284 285 268 260 266 269 266 253 247 258 252 249 242